EW4713 Weather Reports


Display with metric or nautical units.
time (UTC)temp
F
wind
direction
speed
MPH
gust
MPH
rain 1hr
in
rain 24hr
in
rain mn
in
humidity
%
barometer
mb
20260901075029 58 23 0.0 1.0 0.00 0.08 0.00 87 1007.9
20260901074029 58 81 0.0 1.0 0.00 0.08 0.00 86 1008.2
20260901073530 58 74 0.0 1.0 0.00 0.08 0.00 86 1007.9
20260901073029 58 8 0.0 2.0 0.00 0.08 0.00 85 1007.9
20260901072530 58 74 0.0 2.0 0.00 0.08 0.00 85 1008.2
20260901072028 58 154 0.0 2.0 0.00 0.08 0.00 85 1007.9
20260901071531 59 90 0.0 0.0 0.00 0.08 0.00 84 1008.2
20260901071029 59 0 0.0 1.0 0.00 0.08 0.00 84 1008.2
20260901070029 59 345 0.0 1.0 0.00 0.08 0.00 82 1007.9
20260901065530 60 345 0.0 1.0 0.00 0.08 0.00 82 1008.2
20260901065028 60 90 0.0 0.0 0.00 0.08 0.00 80 1008.2
20260901064531 61 81 0.0 0.0 0.00 0.08 0.00 79 1008.2
20260901064030 61 75 0.0 0.0 0.00 0.08 0.00 79 1007.9
20260901063531 62 75 0.0 0.0 0.00 0.08 0.00 77 1008.2
20260901063029 62 90 0.0 1.0 0.00 0.08 0.00 76 1008.2
20260901062531 62 90 0.0 2.0 0.00 0.09 0.00 75 1008.2
20260901062029 63 84 1.0 2.0 0.00 0.24 0.00 75 1007.5
20260901061530 63 106 0.0 2.0 0.00 0.24 0.00 77 1007.9
20260901061030 63 82 0.0 2.0 0.00 0.24 0.00 74 1007.5
20260901060531 63 90 1.0 2.0 0.00 0.24 0.00 75 1007.5
20260901060028 63 98 0.0 2.0 0.00 0.24 0.00 76 1007.9
20260901055529 63 81 0.0 3.0 0.00 0.24 0.00 75 1007.5
20260901054027 64 121 2.0 7.0 0.00 0.24 0.00 73 1007.5
20260901053528 64 135 2.0 7.0 0.00 0.24 0.00 75 1007.5
20260901053027 64 90 1.0 3.0 0.00 0.24 0.00 75 1007.2
20260901052528 63 90 0.0 2.0 0.00 0.24 0.00 77 1007.2
20260901052026 64 8 0.0 3.0 0.00 0.24 0.00 76 1007.2
20260901051528 64 90 0.0 3.0 0.00 0.24 0.00 74 1006.9
20260901051025 63 157 0.0 1.0 0.00 0.24 0.00 75 1007.2
20260901050526 64 0 0.0 1.0 0.00 0.24 0.00 74 1006.9
20260901050025 64 286 0.0 3.0 0.00 0.24 0.00 75 1006.9
20260901045526 64 7 1.0 3.0 0.00 0.24 0.24 74 1006.9
20260901045024 64 8 0.0 2.0 0.00 0.24 0.24 73 1007.2
20260901044524 64 345 0.0 1.0 0.00 0.24 0.24 74 1007.2
20260901044023 64 111 0.0 1.0 0.00 0.24 0.24 73 1006.9
20260901043524 64 0 0.0 2.0 0.00 0.24 0.24 73 1006.9
20260901043023 65 166 0.0 2.0 0.00 0.24 0.24 73 1006.9
20260901042524 65 98 0.0 2.0 0.00 0.24 0.24 73 1007.2
20260901041524 64 270 0.0 3.0 0.00 0.24 0.24 73 1006.9
20260901040523 64 7 0.0 3.0 0.00 0.24 0.24 74 1006.9
20260901034521 65 7 0.0 2.0 0.00 0.24 0.24 73 1006.9
20260901034020 65 75 0.0 2.0 0.00 0.24 0.24 73 1006.9
20260901033020 65 160 0.0 2.0 0.00 0.24 0.24 74 1006.9
20260901032521 65 15 0.0 2.0 0.00 0.24 0.24 74 1006.5
20260901032019 65 166 0.0 2.0 0.00 0.24 0.24 74 1006.9
20260901031018 66 8 0.0 2.0 0.00 0.24 0.24 73 1007.2
20260901030520 67 165 0.0 2.0 0.00 0.24 0.24 73 1006.9
20260901030018 67 209 0.0 2.0 0.00 0.24 0.24 72 1006.9
20260901025018 68 345 0.0 2.0 0.00 0.24 0.24 71 1006.9
20260901024019 68 345 0.0 3.0 0.00 0.24 0.24 71 1006.9
20260901023516 67 194 0.0 2.0 0.00 0.24 0.24 71 1006.9
20260901023016 67 220 0.0 2.0 0.00 0.24 0.24 71 1006.9
20260901022515 68 8 0.0 2.0 0.00 0.24 0.24 70 1006.9
20260901022015 68 352 0.0 2.0 0.00 0.24 0.24 71 1006.9
20260901021515 68 279 0.0 3.0 0.00 0.24 0.24 69 1006.9
20260901021015 68 270 0.0 3.0 0.00 0.24 0.24 70 1006.9
20260901020516 69 213 2.0 2.0 0.00 0.24 0.24 69 1006.9
20260901020001 69 294 2.0 2.0 0.00 0.24 0.24 69 1006.9
20260901015503 69 261 0.0 2.0 0.00 0.24 0.24 68 1006.5
20260901015001 69 337 0.0 2.0 0.00 0.24 0.24 68 1006.5
20260901014503 69 270 0.0 2.0 0.00 0.24 0.24 67 1006.5
20260901014001 69 307 0.0 2.0 0.00 0.24 0.24 66 1006.5
20260901013502 70 279 0.0 2.0 0.00 0.24 0.24 66 1006.1
20260901013001 70 117 0.0 2.0 0.00 0.24 0.24 65 1006.5
20260901012503 70 294 1.0 2.0 0.00 0.24 0.24 66 1006.5
20260901012001 71 281 0.0 2.0 0.00 0.24 0.24 64 1006.1
20260901011501 71 6 0.0 2.0 0.00 0.24 0.24 63 1006.1
20260901011000 71 254 0.0 2.0 0.00 0.24 0.24 63 1006.1
20260901010501 72 277 0.0 2.0 0.00 0.24 0.24 62 1006.1
20260901010001 72 291 0.0 4.0 0.00 0.24 0.24 61 1006.1
20260901005501 73 270 0.0 4.0 0.00 0.24 0.24 60 1006.1
20260901005002 73 249 0.0 2.0 0.00 0.24 0.24 59 1006.5
20260901004000 74 233 2.0 3.0 0.00 0.24 0.24 57 1006.1
20260901003004 75 90 0.0 5.0 0.00 0.24 0.24 56 1006.5
20260901002001 75 0 0.0 5.0 0.00 0.24 0.24 55 1006.5
20260901001500 76 264 0.0 5.0 0.00 0.24 0.24 54 1006.1
20260901000004 77 270 0.0 4.0 0.00 0.24 0.24 52 1006.1
20260831235501 77 140 0.0 4.0 0.00 0.24 0.24 52 1006.5
20260831235001 78 15 1.0 4.0 0.00 0.24 0.24 49 1006.5
20260831234502 79 107 2.0 3.0 0.00 0.24 0.24 48 1006.1
20260831234001 80 11 2.0 5.0 0.00 0.24 0.24 48 1006.5
20260831233502 80 315 2.0 5.0 0.00 0.24 0.24 46 1006.5
20260831233002 80 23 2.0 6.0 0.00 0.24 0.24 45 1006.5
20260831232503 80 90 0.0 6.0 0.00 0.24 0.24 46 1006.5
20260831232001 80 7 2.0 6.0 0.00 0.24 0.24 47 1006.5
20260831231001 79 145 6.0 7.0 0.00 0.24 0.24 47 1006.5
20260831230503 79 0 0.0 6.0 0.00 0.24 0.24 46 1006.5
20260831230001 79 145 1.0 6.0 0.00 0.24 0.24 46 1006.9
20260831225501 79 57 2.0 5.0 0.00 0.24 0.24 46 1006.5
20260831225001 80 77 0.0 5.0 0.00 0.24 0.24 45 1006.5
20260831224502 81 135 2.0 7.0 0.00 0.24 0.24 44 1006.5
20260831223501 82 348 1.0 6.0 0.00 0.24 0.24 42 1006.5
20260831223006 82 105 0.0 5.0 0.00 0.24 0.24 42 1006.9
20260831222503 81 300 2.0 6.0 0.00 0.24 0.24 43 1006.1
20260831222001 81 349 4.0 6.0 0.00 0.24 0.24 40 1006.5
20260831221502 82 286 0.0 5.0 0.00 0.24 0.24 42 1006.5
20260831221000 82 180 0.0 5.0 0.00 0.24 0.24 44 1006.1
20260831220503 82 173 1.0 6.0 0.00 0.24 0.24 40 1006.5
20260831220002 82 133 3.0 9.0 0.00 0.24 0.24 42 1006.1
20260831215001 82 180 2.0 6.0 0.00 0.24 0.24 45 1006.5
20260831214502 82 51 2.0 6.0 0.00 0.24 0.24 42 1006.5
20260831214001 83 66 0.0 4.0 0.00 0.24 0.24 43 1006.5
20260831213503 83 23 0.0 4.0 0.00 0.24 0.24 42 1006.1
20260831212001 83 220 3.0 4.0 0.00 0.24 0.24 46 1006.5
20260831211502 83 281 2.0 4.0 0.00 0.24 0.24 45 1006.5
20260831211002 82 345 1.0 4.0 0.00 0.24 0.24 43 1006.9
20260831210502 83 7 4.0 5.0 0.00 0.24 0.24 41 1006.5
20260831210001 83 348 1.0 5.0 0.00 0.24 0.24 43 1006.5
20260831205500 84 168 1.0 6.0 0.00 0.24 0.24 42 1006.9
20260831205001 83 99 2.0 7.0 0.00 0.24 0.24 42 1006.9
20260831203502 83 203 0.0 4.0 0.00 0.24 0.24 50 1006.9
20260831203001 82 334 1.0 4.0 0.00 0.24 0.24 42 1006.9
20260831202000 82 0 0.0 6.0 0.00 0.24 0.24 47 1006.9
20260831201001 82 12 1.0 5.0 0.00 0.24 0.24 49 1006.9
20260831200502 83 98 0.0 4.0 0.00 0.24 0.24 47 1006.9
20260831200000 82 68 2.0 8.0 0.00 0.24 0.24 45 1006.9
20260831195501 82 77 1.0 8.0 0.00 0.24 0.24 46 1007.2
20260831195001 82 29 2.0 5.0 0.00 0.24 0.24 49 1007.2
20260831194501 82 105 2.0 5.0 0.00 0.24 0.24 46 1007.2
20260831194001 81 180 1.0 4.0 0.00 0.24 0.24 46 1007.2
20260831193502 81 90 0.0 4.0 0.00 0.24 0.24 47 1006.9
20260831193001 81 213 2.0 4.0 0.00 0.24 0.24 49 1006.9
20260831192001 80 106 1.0 4.0 0.00 0.24 0.24 48 1006.9
20260831191503 80 119 2.0 5.0 0.00 0.24 0.24 50 1007.2
20260831191001 80 98 0.0 5.0 0.00 0.24 0.24 48 1006.9
20260831185502 79 185 0.0 4.0 0.00 0.24 0.24 52 1007.5
20260831184503 79 157 0.0 2.0 0.00 0.24 0.24 61 1007.2
20260831184002 79 173 1.0 6.0 0.00 0.24 0.24 57 1007.5
20260831183502 78 154 1.0 6.0 0.00 0.24 0.24 56 1007.2
20260831183001 78 49 0.0 6.0 0.00 0.24 0.24 53 1007.2
20260831182502 78 346 0.0 5.0 0.00 0.24 0.24 55 1007.2
20260831181501 78 176 0.0 7.0 0.00 0.24 0.24 62 1007.5
20260831181001 77 99 0.0 7.0 0.00 0.24 0.24 62 1007.5
20260831180501 77 127 2.0 5.0 0.00 0.24 0.24 64 1007.5
20260831180000 77 8 2.0 9.0 0.00 0.24 0.24 60 1007.5
20260831175500 76 121 0.0 9.0 0.00 0.24 0.24 61 1007.5
20260831175003 76 166 2.0 5.0 0.00 0.24 0.24 64 1007.9
20260831174502 76 241 0.0 4.0 0.00 0.24 0.24 66 1007.5
20260831174001 76 90 0.0 4.0 0.00 0.24 0.24 64 1007.5
20260831173505 76 75 2.0 4.0 0.00 0.24 0.24 64 1007.2
20260831173000 76 166 1.0 4.0 0.00 0.24 0.24 66 1007.5
20260831172503 75 172 0.0 4.0 0.00 0.24 0.24 67 1007.5
20260831172001 75 165 2.0 7.0 0.00 0.24 0.24 66 1007.2
20260831171500 75 144 2.0 7.0 0.00 0.24 0.24 67 1007.5
20260831171001 74 257 0.0 5.0 0.00 0.24 0.24 67 1007.5
20260831170001 74 194 1.0 4.0 0.00 0.24 0.24 69 1007.5
20260831164503 74 188 2.0 4.0 0.00 0.24 0.24 70 1007.2
20260831164001 74 0 1.0 4.0 0.00 0.24 0.24 76 1007.2
20260831163502 73 166 2.0 3.0 0.00 0.24 0.24 75 1007.2
20260831162503 73 8 0.0 3.0 0.00 0.24 0.24 77 1006.9
20260831162002 72 157 1.0 3.0 0.00 0.24 0.24 77 1006.9
20260831161503 72 342 0.0 3.0 0.00 0.24 0.24 78 1006.9
20260831161001 72 56 2.0 4.0 0.00 0.24 0.24 83 1007.2
20260831160000 71 0 2.0 3.0 0.00 0.24 0.24 81 1006.9
20260831155502 71 97 0.0 3.0 0.00 0.24 0.24 83 1006.9
20260831155001 71 33 0.0 3.0 0.00 0.24 0.24 83 1006.9
20260831154503 70 102 0.0 3.0 0.00 0.24 0.24 82 1006.5
20260831154001 70 81 0.0 2.0 0.00 0.24 0.24 84 1006.5
20260831153502 70 188 0.0 2.0 0.00 0.24 0.24 84 1006.9
20260831153000 70 0 0.0 3.0 0.00 0.24 0.24 87 1006.9
20260831152503 70 172 0.0 3.0 0.00 0.24 0.24 88 1006.5
20260831152001 69 124 2.0 2.0 0.00 0.24 0.24 88 1006.5
20260831151500 69 279 0.0 2.0 0.00 0.24 0.24 90 1006.5
20260831151001 69 0 0.0 1.0 0.00 0.24 0.24 89 1006.5
20260831150501 68 186 0.0 3.0 0.00 0.24 0.24 90 1006.5
20260831150002 69 26 0.0 3.0 0.00 0.24 0.24 89 1006.5
20260831145502 69 254 0.0 3.0 0.00 0.24 0.24 91 1006.5
20260831145001 69 270 0.0 2.0 0.00 0.24 0.24 90 1006.5
20260831144503 70 270 0.0 2.0 0.00 0.24 0.24 88 1006.1
20260831144001 69 0 0.0 2.0 0.00 0.24 0.24 89 1006.1
20260831143502 68 180 0.0 2.0 0.00 0.24 0.24 95 1006.1
20260831143001 67 209 0.0 3.0 0.00 0.24 0.24 99 1006.1
20260831142000 64 90 0.0 2.0 0.00 0.24 0.24 99 1006.5
20260831141502 65 195 0.0 3.0 0.00 0.24 0.24 99 1006.5
20260831141001 65 147 0.0 3.0 0.00 0.24 0.24 99 1006.1
20260831140502 65 262 0.0 2.0 0.00 0.24 0.24 99 1006.1
20260831140005 64 0 1.0 3.0 0.00 0.24 0.24 99 1006.5
20260831135503 63 180 0.0 3.0 0.00 0.24 0.24 99 1006.1
20260831134507 64 0 0.0 1.0 0.00 0.24 0.24 99 1005.7
20260831133504 65 180 0.0 2.0 0.00 0.24 0.24 99 1005.7
20260831133005 65 336 0.0 2.0 0.00 0.24 0.24 99 1005.7
20260831132503 64 151 0.0 2.0 0.00 0.24 0.24 99 1005.7
20260831132002 65 66 0.0 2.0 0.00 0.24 0.24 99 1005.7
20260831131503 64 186 0.0 3.0 0.00 0.24 0.24 99 1005.7
20260831131001 64 6 1.0 3.0 0.00 0.24 0.24 99 1005.7
20260831130502 65 90 0.0 2.0 0.00 0.24 0.24 99 1005.7
20260831130001 64 186 0.0 3.0 0.00 0.24 0.24 99 1005.4
20260831125502 64 157 0.0 3.0 0.00 0.24 0.24 99 1005.7
20260831124959 64 188 0.0 3.0 0.00 0.24 0.24 99 1005.1
20260831124501 64 191 2.0 6.0 0.00 0.24 0.24 99 1005.1
20260831123959 64 157 1.0 6.0 0.00 0.24 0.24 99 1005.4
20260831123501 65 90 0.0 2.0 0.00 0.24 0.24 99 1005.1
20260831122959 65 187 0.0 4.0 0.00 0.24 0.24 99 1004.7
20260831122500 66 145 0.0 4.0 0.00 0.24 0.24 99 1004.7
20260831121459 67 109 0.0 3.0 0.00 0.24 0.24 99 1004.4
20260831120957 67 168 0.0 3.0 0.00 0.24 0.24 99 1004.0
20260831120458 67 66 0.0 2.0 0.00 0.24 0.24 99 1004.4
20260831115956 67 175 0.0 0.0 0.00 0.24 0.24 99 1004.0
20260831115458 67 175 0.0 1.0 0.00 0.24 0.24 99 1004.0
20260831114956 67 175 0.0 1.0 0.00 0.24 0.24 99 1004.0
20260831114456 67 195 0.0 1.0 0.00 0.24 0.24 99 1003.6
20260831112955 67 270 0.0 1.0 0.00 0.24 0.24 99 1003.3
20260831112456 67 337 0.0 1.0 0.00 0.24 0.24 99 1003.3
20260831111954 67 346 0.0 1.0 0.00 0.24 0.24 99 1003.3
20260831111455 67 346 0.0 3.0 0.00 0.24 0.24 99 1003.3
20260831110953 67 346 2.0 3.0 0.00 0.24 0.24 99 1003.3
20260831110455 67 255 0.0 1.0 0.00 0.24 0.24 99 1003.3
20260831105455 67 303 0.0 2.0 0.00 0.24 0.24 99 1003.3
20260831104952 67 188 0.0 5.0 0.00 0.24 0.24 99 1002.9
20260831103951 67 340 0.0 3.0 0.00 0.24 0.24 99 1002.9
20260831103453 67 45 0.0 3.0 0.00 0.24 0.24 99 1002.9
20260831102951 67 12 0.0 3.0 0.00 0.24 0.24 99 1002.6
20260831102451 67 180 0.0 2.0 0.00 0.24 0.24 99 1002.9
20260831101950 67 328 0.0 2.0 0.00 0.24 0.24 99 1002.6
20260831101450 67 33 0.0 2.0 0.00 0.24 0.24 99 1002.9
20260831100951 67 352 0.0 3.0 0.00 0.24 0.24 99 1002.6
20260831100451 67 305 0.0 3.0 0.00 0.24 0.24 99 1002.6
20260831095451 67 287 2.0 2.0 0.00 0.24 0.24 99 1002.6
20260831094949 67 300 0.0 2.0 0.00 0.24 0.24 99 1002.6
20260831094450 66 255 0.0 2.0 0.00 0.24 0.24 99 1002.6
20260831093948 67 261 0.0 4.0 0.00 0.24 0.24 99 1002.6
20260831093450 66 285 0.0 4.0 0.00 0.24 0.24 99 1002.3
20260831092947 66 264 1.0 4.0 0.00 0.24 0.24 99 1002.3
20260831092449 66 282 2.0 4.0 0.00 0.24 0.24 99 1002.6
20260831091947 66 294 2.0 3.0 0.00 0.24 0.24 99 1002.3
20260831091448 66 346 1.0 3.0 0.01 0.24 0.24 99 1002.3
20260831090947 66 303 2.0 2.0 0.01 0.24 0.24 99 1002.6
20260831090448 66 285 1.0 3.0 0.01 0.24 0.24 99 1002.6
20260831085946 66 315 0.0 3.0 0.06 0.24 0.24 99 1002.6
20260831085445 66 195 0.0 4.0 0.08 0.24 0.24 99 1002.6
20260831084945 66 339 2.0 4.0 0.08 0.24 0.24 99 1002.6
20260831083945 66 329 2.0 5.0 0.08 0.24 0.24 99 1002.3
20260831083445 66 300 0.0 4.0 0.08 0.24 0.24 99 1002.3
20260831082944 66 291 1.0 4.0 0.08 0.24 0.24 99 1002.6
20260831082445 66 312 0.0 4.0 0.08 0.24 0.24 99 1002.6
20260831081444 66 279 4.0 4.0 0.07 0.23 0.23 99 1002.9
20260831080942 66 261 0.0 4.0 0.07 0.23 0.23 99 1002.9
20260831075942 66 121 0.0 2.0 0.02 0.18 0.17 99 1004.0
20260831075441 66 270 1.0 2.0 0.00 0.16 0.16 99 1004.0